| time (UTC) | temp F | wind direction | speed MPH | gust MPH | rain 1hr in | rain 24hr in | rain mn in | humidity % | barometer mb |
| 20260906160243 | 89 | 221 | 2.0 | 3.0 | 0.00 | 0.00 | 0.00 | 79 | 1012.7 |
| 20260906155741 | 88 | 214 | 0.0 | 3.0 | 0.00 | 0.00 | 0.00 | 85 | 1012.7 |
| 20260906155236 | 88 | 201 | 1.0 | 2.0 | 0.00 | 0.00 | 0.00 | 87 | 1012.6 |
| 20260906154732 | 87 | 190 | 0.0 | 1.0 | 0.00 | 0.00 | 0.00 | 88 | 1012.8 |
| 20260906154227 | 87 | 203 | 0.0 | 1.0 | 0.00 | 0.00 | 0.00 | 87 | 1012.6 |
| 20260906153725 | 87 | 210 | 0.0 | 1.0 | 0.00 | 0.00 | 0.00 | 88 | 1012.7 |
| 20260906153220 | 87 | 205 | 0.0 | 2.0 | 0.00 | 0.00 | 0.00 | 87 | 1012.8 |
| 20260906152714 | 87 | 239 | 3.0 | 6.0 | 0.00 | 0.00 | 0.00 | 87 | 1012.7 |
| 20260906152208 | 87 | 222 | 2.0 | 3.0 | 0.00 | 0.00 | 0.00 | 87 | 1012.7 |
| 20260906150531 | 87 | 199 | 0.0 | 2.0 | 0.00 | 0.00 | 0.00 | 89 | 1012.4 |
| 20260906150026 | 87 | 199 | 0.0 | 2.0 | 0.00 | 0.00 | 0.00 | 89 | 1012.4 |
| 20260906145525 | 86 | 193 | 0.0 | 0.0 | 0.00 | 0.00 | 0.00 | 90 | 1012.6 |
| 20260906145020 | 85 | 206 | 0.0 | 1.0 | 0.00 | 0.00 | 0.00 | 91 | 1012.3 |
| 20260906144514 | 86 | 213 | 1.0 | 1.0 | 0.00 | 0.00 | 0.00 | 91 | 1012.3 |
| 20260906144009 | 85 | 197 | 0.0 | 0.0 | 0.00 | 0.00 | 0.00 | 92 | 1012.7 |
| 20260906142530 | 87 | 185 | 0.0 | 0.0 | 0.00 | 0.00 | 0.00 | 90 | 1012.5 |
| 20260906142027 | 87 | 185 | 0.0 | 0.0 | 0.00 | 0.00 | 0.00 | 90 | 1012.5 |
| 20260906141525 | 86 | 195 | 0.0 | 0.0 | 0.00 | 0.00 | 0.00 | 90 | 1012.7 |
| 20260906141021 | 85 | 180 | 0.0 | 1.0 | 0.00 | 0.00 | 0.00 | 92 | 1012.6 |
| 20260906140514 | 85 | 172 | 0.0 | 0.0 | 0.00 | 0.00 | 0.00 | 94 | 1012.7 |
| 20260906140014 | 85 | 180 | 0.0 | 1.0 | 0.00 | 0.00 | 0.00 | 94 | 1012.4 |
| 20260906130319 | 80 | 204 | 0.0 | 0.0 | 0.00 | 0.00 | 0.00 | 99 | 1012.2 |
| 20260906125817 | 80 | 204 | 0.0 | 0.0 | 0.00 | 0.00 | 0.00 | 99 | 1012.2 |
| 20260906125315 | 79 | 204 | 0.0 | 0.0 | 0.00 | 0.00 | 0.00 | 99 | 1012.0 |
| 20260906124810 | 78 | 204 | 0.0 | 0.0 | 0.00 | 0.00 | 0.00 | 99 | 1012.1 |
| 20260906124306 | 78 | 204 | 0.0 | 0.0 | 0.00 | 0.00 | 0.00 | 99 | 1012.3 |
| 20260906123805 | 78 | 204 | 0.0 | 0.0 | 0.00 | 0.00 | 0.00 | 99 | 1011.9 |
| 20260906123300 | 78 | 204 | 0.0 | 0.0 | 0.00 | 0.00 | 0.00 | 99 | 1011.9 |
| 20260906122800 | 78 | 205 | 0.0 | 0.0 | 0.00 | 0.00 | 0.00 | 99 | 1011.9 |
| 20260906122255 | 78 | 205 | 0.0 | 0.0 | 0.00 | 0.00 | 0.00 | 99 | 1011.7 |
| 20260906121752 | 78 | 205 | 0.0 | 0.0 | 0.00 | 0.00 | 0.00 | 99 | 1011.5 |
| 20260906121248 | 78 | 205 | 0.0 | 0.0 | 0.00 | 0.00 | 0.00 | 99 | 1011.5 |
| 20260906120743 | 78 | 205 | 0.0 | 0.0 | 0.00 | 0.00 | 0.00 | 99 | 1011.5 |
| 20260906120240 | 78 | 205 | 0.0 | 0.0 | 0.00 | 0.00 | 0.00 | 99 | 1011.2 |
| 20260906115735 | 78 | 205 | 0.0 | 0.0 | 0.00 | 0.00 | 0.00 | 99 | 1011.3 |
| 20260906115230 | 78 | 205 | 0.0 | 0.0 | 0.00 | 0.00 | 0.00 | 99 | 1011.5 |
| 20260906114729 | 78 | 205 | 0.0 | 0.0 | 0.00 | 0.00 | 0.00 | 99 | 1011.5 |
| 20260906114225 | 78 | 205 | 0.0 | 0.0 | 0.00 | 0.00 | 0.00 | 99 | 1011.2 |
| 20260906113720 | 78 | 205 | 0.0 | 0.0 | 0.00 | 0.00 | 0.00 | 99 | 1011.1 |
| 20260906113219 | 78 | 205 | 0.0 | 0.0 | 0.00 | 0.00 | 0.00 | 99 | 1011.1 |
| 20260906112719 | 78 | 205 | 0.0 | 0.0 | 0.00 | 0.00 | 0.00 | 99 | 1011.1 |
| 20260906112216 | 78 | 205 | 0.0 | 0.0 | 0.00 | 0.00 | 0.00 | 99 | 1010.9 |
| 20260906111715 | 78 | 205 | 0.0 | 0.0 | 0.00 | 0.00 | 0.00 | 99 | 1011.0 |
| 20260906111210 | 78 | 205 | 0.0 | 0.0 | 0.00 | 0.00 | 0.00 | 99 | 1010.9 |
| 20260906110704 | 78 | 205 | 0.0 | 0.0 | 0.00 | 0.00 | 0.00 | 99 | 1011.0 |
| 20260906110200 | 78 | 205 | 0.0 | 0.0 | 0.00 | 0.00 | 0.00 | 99 | 1011.1 |
| 20260906105654 | 78 | 205 | 0.0 | 0.0 | 0.00 | 0.00 | 0.00 | 99 | 1010.9 |
| 20260906105150 | 78 | 205 | 0.0 | 0.0 | 0.00 | 0.00 | 0.00 | 99 | 1011.1 |
| 20260906104649 | 78 | 205 | 0.0 | 0.0 | 0.00 | 0.00 | 0.00 | 99 | 1011.1 |
| 20260906104143 | 78 | 205 | 0.0 | 0.0 | 0.00 | 0.00 | 0.00 | 99 | 1011.1 |
| 20260906103641 | 78 | 205 | 0.0 | 0.0 | 0.00 | 0.00 | 0.00 | 99 | 1010.9 |
| 20260906103137 | 78 | 205 | 0.0 | 0.0 | 0.00 | 0.00 | 0.00 | 99 | 1011.0 |
| 20260906102632 | 78 | 205 | 0.0 | 0.0 | 0.00 | 0.00 | 0.00 | 99 | 1011.1 |
| 20260906102131 | 78 | 205 | 0.0 | 0.0 | 0.00 | 0.00 | 0.00 | 99 | 1010.8 |
| 20260906101626 | 79 | 205 | 0.0 | 0.0 | 0.00 | 0.00 | 0.00 | 99 | 1010.8 |
| 20260906101126 | 79 | 205 | 0.0 | 0.0 | 0.00 | 0.00 | 0.00 | 99 | 1010.8 |
| 20260906100622 | 79 | 205 | 0.0 | 0.0 | 0.00 | 0.00 | 0.00 | 99 | 1011.0 |
| 20260906100122 | 79 | 204 | 0.0 | 0.0 | 0.00 | 0.00 | 0.00 | 99 | 1010.6 |
| 20260906095616 | 78 | 205 | 0.0 | 0.0 | 0.00 | 0.00 | 0.00 | 99 | 1010.7 |
| 20260906095112 | 78 | 205 | 0.0 | 0.0 | 0.00 | 0.00 | 0.00 | 99 | 1010.6 |
| 20260906094611 | 79 | 205 | 0.0 | 0.0 | 0.00 | 0.00 | 0.00 | 99 | 1010.6 |
| 20260906094107 | 79 | 205 | 0.0 | 0.0 | 0.00 | 0.00 | 0.00 | 99 | 1010.6 |
| 20260906093603 | 79 | 205 | 0.0 | 0.0 | 0.00 | 0.00 | 0.00 | 99 | 1010.5 |
| 20260906093057 | 79 | 205 | 0.0 | 0.0 | 0.00 | 0.00 | 0.00 | 99 | 1010.3 |
| 20260906092553 | 79 | 205 | 0.0 | 0.0 | 0.00 | 0.00 | 0.00 | 99 | 1010.6 |
| 20260906092047 | 79 | 205 | 0.0 | 0.0 | 0.00 | 0.00 | 0.00 | 99 | 1010.5 |
| 20260906091543 | 79 | 205 | 0.0 | 0.0 | 0.00 | 0.00 | 0.00 | 99 | 1010.4 |
| 20260906091040 | 79 | 205 | 0.0 | 0.0 | 0.00 | 0.00 | 0.00 | 99 | 1010.5 |
| 20260906090539 | 79 | 205 | 0.0 | 0.0 | 0.00 | 0.00 | 0.00 | 99 | 1010.6 |
| 20260906090034 | 79 | 205 | 0.0 | 0.0 | 0.00 | 0.00 | 0.00 | 99 | 1010.6 |
| 20260906085533 | 79 | 205 | 0.0 | 0.0 | 0.00 | 0.00 | 0.00 | 99 | 1010.6 |
| 20260906085033 | 79 | 205 | 0.0 | 0.0 | 0.00 | 0.00 | 0.00 | 99 | 1010.6 |
| 20260906084528 | 79 | 205 | 0.0 | 0.0 | 0.00 | 0.00 | 0.00 | 99 | 1010.3 |
| 20260906084026 | 79 | 205 | 0.0 | 0.0 | 0.00 | 0.00 | 0.00 | 99 | 1010.3 |
| 20260906083522 | 79 | 205 | 0.0 | 0.0 | 0.00 | 0.00 | 0.00 | 99 | 1010.3 |
| 20260906083022 | 79 | 205 | 0.0 | 0.0 | 0.00 | 0.00 | 0.00 | 99 | 1010.3 |
| 20260906082517 | 79 | 205 | 0.0 | 0.0 | 0.00 | 0.00 | 0.00 | 99 | 1010.4 |
| 20260906082013 | 79 | 205 | 0.0 | 0.0 | 0.00 | 0.00 | 0.00 | 99 | 1010.4 |
| 20260906081508 | 79 | 205 | 0.0 | 0.0 | 0.00 | 0.00 | 0.00 | 99 | 1010.5 |
| 20260906081004 | 79 | 205 | 0.0 | 0.0 | 0.00 | 0.00 | 0.00 | 99 | 1010.6 |
| 20260906080500 | 79 | 205 | 0.0 | 0.0 | 0.00 | 0.00 | 0.00 | 99 | 1010.7 |
| 20260906075955 | 79 | 205 | 0.0 | 0.0 | 0.00 | 0.00 | 0.00 | 99 | 1010.5 |
| 20260906075450 | 79 | 205 | 0.0 | 0.0 | 0.00 | 0.00 | 0.00 | 99 | 1010.6 |
| 20260906074945 | 79 | 205 | 0.0 | 0.0 | 0.00 | 0.00 | 0.00 | 99 | 1010.6 |
| 20260906074445 | 79 | 205 | 0.0 | 0.0 | 0.00 | 0.00 | 0.00 | 99 | 1010.5 |
| 20260906073943 | 80 | 205 | 0.0 | 0.0 | 0.00 | 0.00 | 0.00 | 99 | 1010.5 |
| 20260906073438 | 80 | 205 | 0.0 | 0.0 | 0.00 | 0.00 | 0.00 | 99 | 1010.7 |
| 20260906072935 | 80 | 205 | 0.0 | 0.0 | 0.00 | 0.00 | 0.00 | 99 | 1010.9 |
| 20260906072430 | 80 | 205 | 0.0 | 0.0 | 0.00 | 0.00 | 0.00 | 99 | 1010.9 |
| 20260906071926 | 80 | 205 | 0.0 | 0.0 | 0.00 | 0.00 | 0.00 | 99 | 1010.8 |
| 20260906071422 | 80 | 205 | 0.0 | 0.0 | 0.00 | 0.00 | 0.00 | 99 | 1010.8 |
| 20260906070918 | 80 | 206 | 0.0 | 0.0 | 0.00 | 0.00 | 0.00 | 99 | 1010.9 |
| 20260906070413 | 80 | 206 | 0.0 | 0.0 | 0.00 | 0.00 | 0.00 | 99 | 1010.8 |
| 20260906065909 | 80 | 206 | 0.0 | 0.0 | 0.00 | 0.00 | 0.00 | 99 | 1011.1 |
| 20260906065403 | 80 | 205 | 0.0 | 0.0 | 0.00 | 0.00 | 0.00 | 99 | 1011.2 |
| 20260906064859 | 80 | 205 | 0.0 | 0.0 | 0.00 | 0.00 | 0.00 | 99 | 1011.0 |
| 20260906064355 | 80 | 205 | 0.0 | 0.0 | 0.00 | 0.00 | 0.00 | 99 | 1011.1 |
| 20260906063854 | 80 | 205 | 0.0 | 0.0 | 0.00 | 0.00 | 0.00 | 99 | 1010.9 |
| 20260906063350 | 80 | 206 | 0.0 | 0.0 | 0.00 | 0.00 | 0.00 | 99 | 1011.1 |
| 20260906062845 | 80 | 206 | 0.0 | 0.0 | 0.00 | 0.00 | 0.00 | 99 | 1011.1 |
| 20260906062344 | 80 | 206 | 0.0 | 0.0 | 0.00 | 0.00 | 0.00 | 99 | 1011.0 |
| 20260906061839 | 81 | 206 | 0.0 | 0.0 | 0.00 | 0.00 | 0.00 | 99 | 1011.0 |
| 20260906061336 | 81 | 206 | 0.0 | 0.0 | 0.00 | 0.00 | 0.00 | 99 | 1011.0 |
| 20260906060830 | 81 | 205 | 0.0 | 0.0 | 0.00 | 0.00 | 0.00 | 99 | 1010.9 |
| 20260906060329 | 81 | 206 | 0.0 | 0.0 | 0.00 | 0.00 | 0.00 | 99 | 1011.1 |
| 20260906055824 | 81 | 206 | 0.0 | 0.0 | 0.00 | 0.00 | 0.00 | 99 | 1011.0 |
| 20260906055320 | 81 | 201 | 0.0 | 0.0 | 0.00 | 0.00 | 0.00 | 99 | 1010.9 |
| 20260906054815 | 81 | 200 | 0.0 | 0.0 | 0.00 | 0.00 | 0.00 | 98 | 1010.9 |
| 20260906054310 | 81 | 200 | 0.0 | 0.0 | 0.00 | 0.00 | 0.00 | 98 | 1011.0 |
| 20260906053806 | 81 | 200 | 0.0 | 0.0 | 0.00 | 0.00 | 0.00 | 98 | 1010.9 |
| 20260906053301 | 81 | 200 | 0.0 | 0.0 | 0.00 | 0.00 | 0.00 | 98 | 1011.1 |
| 20260906052756 | 81 | 201 | 0.0 | 0.0 | 0.00 | 0.00 | 0.00 | 98 | 1011.0 |
| 20260906052253 | 81 | 203 | 0.0 | 0.0 | 0.00 | 0.00 | 0.00 | 98 | 1011.1 |
| 20260906051750 | 81 | 204 | 0.0 | 1.0 | 0.00 | 0.00 | 0.00 | 97 | 1011.2 |
| 20260906051249 | 81 | 193 | 0.0 | 1.0 | 0.00 | 0.00 | 0.00 | 97 | 1011.2 |
| 20260906050744 | 81 | 207 | 1.0 | 2.0 | 0.00 | 0.00 | 0.00 | 97 | 1011.3 |
| 20260906050239 | 81 | 197 | 0.0 | 0.0 | 0.00 | 0.00 | 0.00 | 97 | 1011.3 |
| 20260906045738 | 81 | 200 | 0.0 | 0.0 | 0.00 | 0.00 | 0.00 | 97 | 1011.5 |
| 20260906045233 | 81 | 200 | 0.0 | 0.0 | 0.00 | 0.00 | 0.00 | 97 | 1011.4 |
| 20260906044729 | 81 | 198 | 0.0 | 0.0 | 0.00 | 0.00 | 0.00 | 97 | 1011.2 |
| 20260906044224 | 81 | 207 | 1.0 | 2.0 | 0.00 | 0.00 | 0.00 | 97 | 1011.1 |
| 20260906043720 | 81 | 198 | 1.0 | 2.0 | 0.00 | 0.00 | 0.00 | 97 | 1011.1 |
| 20260906043216 | 81 | 209 | 0.0 | 1.0 | 0.00 | 0.00 | 0.00 | 97 | 1011.0 |
| 20260906042715 | 81 | 195 | 0.0 | 2.0 | 0.00 | 0.00 | 0.00 | 97 | 1011.1 |
| 20260906042215 | 81 | 181 | 1.0 | 2.0 | 0.00 | 0.00 | 0.00 | 97 | 1010.9 |
| 20260906041710 | 81 | 188 | 0.0 | 1.0 | 0.00 | 0.00 | 0.00 | 97 | 1011.1 |
| 20260906041205 | 81 | 200 | 0.0 | 1.0 | 0.00 | 0.00 | 0.00 | 97 | 1011.4 |
| 20260906040701 | 82 | 197 | 0.0 | 1.0 | 0.00 | 0.00 | 0.00 | 96 | 1011.4 |
| 20260906040156 | 82 | 191 | 0.0 | 0.0 | 0.00 | 0.00 | 0.00 | 96 | 1011.2 |
| 20260906035651 | 82 | 186 | 0.0 | 1.0 | 0.00 | 0.00 | 0.00 | 95 | 1011.4 |
| 20260906035147 | 82 | 178 | 0.0 | 1.0 | 0.00 | 0.00 | 0.00 | 95 | 1011.3 |
| 20260906034641 | 82 | 172 | 0.0 | 1.0 | 0.00 | 0.00 | 0.00 | 95 | 1011.5 |
| 20260906034136 | 82 | 173 | 0.0 | 1.0 | 0.00 | 0.00 | 0.00 | 95 | 1011.2 |
| 20260906033632 | 82 | 182 | 0.0 | 1.0 | 0.00 | 0.00 | 0.00 | 95 | 1011.2 |
| 20260906033126 | 82 | 174 | 0.0 | 2.0 | 0.00 | 0.00 | 0.00 | 95 | 1011.1 |
| 20260906032623 | 82 | 181 | 0.0 | 0.0 | 0.00 | 0.00 | 0.00 | 95 | 1011.2 |
| 20260906032122 | 82 | 182 | 0.0 | 0.0 | 0.00 | 0.00 | 0.00 | 95 | 1011.2 |
| 20260906031618 | 82 | 180 | 0.0 | 1.0 | 0.00 | 0.00 | 0.00 | 94 | 1010.9 |
| 20260906031114 | 82 | 174 | 0.0 | 2.0 | 0.00 | 0.00 | 0.00 | 94 | 1010.9 |
| 20260906030612 | 82 | 191 | 0.0 | 0.0 | 0.00 | 0.00 | 0.00 | 94 | 1010.9 |
| 20260906030108 | 82 | 186 | 0.0 | 0.0 | 0.00 | 0.00 | 0.00 | 94 | 1011.0 |
| 20260906025607 | 82 | 176 | 0.0 | 0.0 | 0.00 | 0.00 | 0.00 | 93 | 1011.0 |
| 20260906025106 | 82 | 175 | 0.0 | 0.0 | 0.00 | 0.00 | 0.00 | 93 | 1010.7 |
| 20260906024601 | 82 | 174 | 0.0 | 0.0 | 0.00 | 0.00 | 0.00 | 93 | 1010.7 |
| 20260906024055 | 83 | 187 | 0.0 | 1.0 | 0.00 | 0.00 | 0.00 | 93 | 1010.7 |
| 20260906023552 | 83 | 181 | 0.0 | 1.0 | 0.00 | 0.00 | 0.00 | 93 | 1010.5 |
| 20260906023046 | 83 | 188 | 0.0 | 1.0 | 0.00 | 0.00 | 0.00 | 92 | 1010.6 |
| 20260906022541 | 83 | 196 | 0.0 | 1.0 | 0.00 | 0.00 | 0.00 | 92 | 1010.4 |
| 20260906022037 | 83 | 189 | 0.0 | 2.0 | 0.00 | 0.00 | 0.00 | 91 | 1010.3 |
| 20260906021532 | 84 | 173 | 1.0 | 1.0 | 0.00 | 0.00 | 0.00 | 91 | 1010.1 |
| 20260906021031 | 84 | 167 | 2.0 | 3.0 | 0.00 | 0.00 | 0.00 | 91 | 1010.2 |
| 20260906020531 | 84 | 174 | 0.0 | 3.0 | 0.00 | 0.00 | 0.00 | 90 | 1010.0 |
| 20260906020031 | 84 | 181 | 0.0 | 2.0 | 0.00 | 0.00 | 0.00 | 91 | 1009.8 |
| 20260906015529 | 84 | 126 | 3.0 | 5.0 | 0.00 | 0.00 | 0.00 | 91 | 1009.8 |
| 20260906015024 | 84 | 173 | 0.0 | 3.0 | 0.00 | 0.00 | 0.00 | 91 | 1010.0 |
| 20260906014519 | 84 | 170 | 0.0 | 2.0 | 0.00 | 0.00 | 0.00 | 91 | 1009.8 |
| 20260906014015 | 84 | 150 | 1.0 | 2.0 | 0.00 | 0.00 | 0.00 | 91 | 1009.5 |
| 20260906013510 | 84 | 168 | 0.0 | 2.0 | 0.00 | 0.00 | 0.00 | 91 | 1009.6 |
| 20260906013006 | 84 | 172 | 2.0 | 3.0 | 0.00 | 0.00 | 0.00 | 90 | 1009.6 |
| 20260906012501 | 84 | 172 | 0.0 | 3.0 | 0.00 | 0.00 | 0.00 | 90 | 1009.6 |
| 20260906012000 | 84 | 201 | 1.0 | 1.0 | 0.00 | 0.00 | 0.00 | 90 | 1009.6 |
| 20260906011456 | 84 | 177 | 1.0 | 2.0 | 0.00 | 0.00 | 0.00 | 89 | 1009.5 |
| 20260906010950 | 85 | 177 | 0.0 | 5.0 | 0.00 | 0.00 | 0.00 | 89 | 1009.5 |
| 20260906010446 | 85 | 166 | 0.0 | 2.0 | 0.00 | 0.00 | 0.00 | 89 | 1009.6 |
| 20260906005943 | 85 | 175 | 1.0 | 5.0 | 0.00 | 0.00 | 0.00 | 88 | 1009.6 |
| 20260906005442 | 85 | 164 | 1.0 | 3.0 | 0.00 | 0.00 | 0.00 | 87 | 1009.6 |
| 20260906004940 | 85 | 172 | 3.0 | 5.0 | 0.00 | 0.00 | 0.00 | 87 | 1009.7 |
| 20260906004434 | 86 | 175 | 1.0 | 3.0 | 0.00 | 0.00 | 0.00 | 86 | 1009.5 |
| 20260906003930 | 86 | 176 | 1.0 | 2.0 | 0.00 | 0.00 | 0.00 | 84 | 1009.6 |
| 20260906003430 | 86 | 177 | 0.0 | 1.0 | 0.00 | 0.00 | 0.00 | 84 | 1009.4 |
| 20260906002926 | 86 | 178 | 1.0 | 1.0 | 0.00 | 0.00 | 0.00 | 83 | 1009.6 |
| 20260906002425 | 86 | 170 | 0.0 | 1.0 | 0.00 | 0.00 | 0.00 | 83 | 1009.7 |
| 20260906001920 | 86 | 174 | 0.0 | 0.0 | 0.00 | 0.00 | 0.00 | 83 | 1009.7 |
| 20260906001416 | 86 | 182 | 0.0 | 0.0 | 0.00 | 0.00 | 0.00 | 84 | 1009.5 |
| 20260906000911 | 87 | 181 | 0.0 | 0.0 | 0.00 | 0.00 | 0.00 | 84 | 1009.6 |
| 20260906000406 | 87 | 172 | 0.0 | 1.0 | 0.00 | 0.00 | 0.00 | 84 | 1009.6 |
| 20260905235901 | 87 | 180 | 0.0 | 2.0 | 0.00 | 0.00 | 0.00 | 83 | 1009.6 |
| 20260905235355 | 87 | 174 | 0.0 | 0.0 | 0.00 | 0.00 | 0.00 | 83 | 1009.4 |
| 20260905234850 | 87 | 170 | 0.0 | 1.0 | 0.00 | 0.00 | 0.00 | 83 | 1009.8 |
| 20260905234346 | 87 | 179 | 0.0 | 2.0 | 0.00 | 0.00 | 0.00 | 83 | 1009.9 |
| 20260905233841 | 88 | 164 | 1.0 | 2.0 | 0.00 | 0.00 | 0.00 | 84 | 1009.9 |
| 20260905233336 | 88 | 174 | 1.0 | 2.0 | 0.00 | 0.00 | 0.00 | 83 | 1009.9 |
| 20260905232835 | 88 | 181 | 0.0 | 2.0 | 0.00 | 0.00 | 0.00 | 84 | 1010.0 |
| 20260905232331 | 87 | 168 | 1.0 | 2.0 | 0.00 | 0.00 | 0.00 | 84 | 1009.9 |
| 20260905231827 | 87 | 170 | 0.0 | 1.0 | 0.00 | 0.00 | 0.00 | 84 | 1009.9 |
| 20260905231321 | 87 | 170 | 1.0 | 2.0 | 0.00 | 0.00 | 0.00 | 84 | 1010.0 |
| 20260905230818 | 87 | 177 | 0.0 | 1.0 | 0.00 | 0.00 | 0.00 | 84 | 1009.6 |
| 20260905230316 | 87 | 185 | 0.0 | 5.0 | 0.00 | 0.00 | 0.00 | 84 | 1009.8 |
| 20260905225815 | 87 | 186 | 0.0 | 3.0 | 0.00 | 0.00 | 0.00 | 84 | 1009.6 |
| 20260905225310 | 87 | 121 | 2.0 | 5.0 | 0.00 | 0.00 | 0.00 | 83 | 1009.4 |
| 20260905224810 | 87 | 178 | 0.0 | 2.0 | 0.00 | 0.00 | 0.00 | 83 | 1009.6 |
| 20260905224306 | 87 | 169 | 0.0 | 1.0 | 0.00 | 0.00 | 0.00 | 82 | 1009.7 |
| 20260905223801 | 87 | 177 | 0.0 | 2.0 | 0.00 | 0.00 | 0.00 | 82 | 1009.4 |
| 20260905223258 | 87 | 153 | 1.0 | 1.0 | 0.00 | 0.00 | 0.00 | 81 | 1009.7 |
| 20260905222753 | 87 | 157 | 1.0 | 1.0 | 0.00 | 0.00 | 0.00 | 82 | 1009.4 |
| 20260905222252 | 87 | 163 | 0.0 | 1.0 | 0.00 | 0.00 | 0.00 | 83 | 1009.5 |
| 20260905221748 | 87 | 176 | 0.0 | 1.0 | 0.00 | 0.00 | 0.00 | 82 | 1009.7 |
| 20260905221245 | 87 | 170 | 0.0 | 1.0 | 0.00 | 0.00 | 0.00 | 83 | 1009.6 |
| 20260905220740 | 87 | 182 | 0.0 | 1.0 | 0.00 | 0.00 | 0.00 | 83 | 1009.8 |
| 20260905220237 | 87 | 181 | 0.0 | 1.0 | 0.00 | 0.00 | 0.00 | 85 | 1009.7 |
| 20260905215736 | 86 | 89 | 1.0 | 2.0 | 0.00 | 0.00 | 0.00 | 85 | 1009.5 |
| 20260905215232 | 86 | 156 | 0.0 | 1.0 | 0.00 | 0.00 | 0.00 | 85 | 1009.6 |
| 20260905214727 | 86 | 194 | 0.0 | 0.0 | 0.00 | 0.00 | 0.00 | 86 | 1009.6 |
| 20260905214223 | 85 | 70 | 0.0 | 2.0 | 0.00 | 0.00 | 0.00 | 88 | 1009.8 |
| 20260905213718 | 85 | 79 | 0.0 | 1.0 | 0.00 | 0.00 | 0.00 | 89 | 1009.8 |
| 20260905213214 | 85 | 174 | 0.0 | 0.0 | 0.00 | 0.00 | 0.00 | 89 | 1010.0 |
| 20260905212709 | 86 | 168 | 0.0 | 2.0 | 0.00 | 0.00 | 0.00 | 89 | 1009.9 |
| 20260905212208 | 85 | 178 | 0.0 | 0.0 | 0.00 | 0.00 | 0.00 | 89 | 1010.2 |
| 20260905211703 | 85 | 179 | 0.0 | 2.0 | 0.00 | 0.00 | 0.00 | 90 | 1010.2 |
| 20260905211158 | 85 | 182 | 0.0 | 1.0 | 0.00 | 0.00 | 0.00 | 91 | 1010.3 |
| 20260905210655 | 85 | 196 | 0.0 | 3.0 | 0.00 | 0.00 | 0.00 | 90 | 1010.4 |
| 20260905210154 | 85 | 186 | 0.0 | 3.0 | 0.00 | 0.00 | 0.00 | 88 | 1010.2 |
| 20260905205654 | 85 | 122 | 0.0 | 2.0 | 0.00 | 0.00 | 0.00 | 87 | 1010.2 |
| 20260905205153 | 85 | 200 | 1.0 | 2.0 | 0.00 | 0.00 | 0.00 | 86 | 1010.0 |
| 20260905204653 | 84 | 187 | 1.0 | 2.0 | 0.00 | 0.00 | 0.00 | 87 | 1010.1 |
| 20260905204148 | 85 | 107 | 3.0 | 5.0 | 0.00 | 0.00 | 0.00 | 87 | 1010.1 |
| 20260905203643 | 84 | 177 | 0.0 | 3.0 | 0.00 | 0.00 | 0.00 | 89 | 1010.2 |
| 20260905203139 | 84 | 107 | 2.0 | 3.0 | 0.00 | 0.00 | 0.00 | 90 | 1010.3 |
| 20260905202634 | 83 | 183 | 3.0 | 5.0 | 0.00 | 0.00 | 0.00 | 92 | 1010.1 |
| 20260905202129 | 83 | 173 | 5.0 | 8.0 | 0.00 | 0.00 | 0.00 | 92 | 1010.1 |
| 20260905201625 | 84 | 209 | 3.0 | 9.0 | 0.00 | 0.00 | 0.00 | 91 | 1010.4 |
| 20260905201124 | 86 | 168 | 4.0 | 7.0 | 0.00 | 0.00 | 0.00 | 83 | 1010.4 |
| 20260905200620 | 87 | 220 | 3.0 | 8.0 | 0.00 | 0.00 | 0.00 | 77 | 1010.4 |
| 20260905200115 | 90 | 149 | 3.0 | 11.0 | 0.00 | 0.00 | 0.00 | 78 | 1010.4 |
| 20260905195614 | 91 | 226 | 6.0 | 9.0 | 0.00 | 0.00 | 0.00 | 71 | 1010.5 |
| 20260905195109 | 91 | 231 | 7.0 | 10.0 | 0.00 | 0.00 | 0.00 | 72 | 1010.4 |
| 20260905194609 | 90 | 219 | 9.0 | 15.0 | 0.00 | 0.00 | 0.00 | 75 | 1010.5 |
| 20260905194108 | 90 | 212 | 8.0 | 9.0 | 0.00 | 0.00 | 0.00 | 76 | 1010.4 |
| 20260905193603 | 90 | 213 | 7.0 | 9.0 | 0.00 | 0.00 | 0.00 | 75 | 1010.5 |
| 20260905193058 | 93 | 253 | 8.0 | 11.0 | 0.00 | 0.00 | 0.00 | 69 | 1010.7 |
| 20260905192554 | 95 | 179 | 1.0 | 5.0 | 0.00 | 0.00 | 0.00 | 60 | 1010.5 |
| 20260905192050 | 95 | 198 | 0.0 | 1.0 | 0.00 | 0.00 | 0.00 | 63 | 1010.7 |
| 20260905191548 | 97 | 206 | 1.0 | 3.0 | 0.00 | 0.00 | 0.00 | 57 | 1010.4 |
| 20260905191048 | 97 | 97 | 2.0 | 3.0 | 0.00 | 0.00 | 0.00 | 57 | 1010.4 |
| 20260905190546 | 98 | 193 | 0.0 | 2.0 | 0.00 | 0.00 | 0.00 | 59 | 1010.5 |
| 20260905190040 | 97 | 165 | 1.0 | 1.0 | 0.00 | 0.00 | 0.00 | 57 | 1010.6 |
| 20260905185539 | 95 | 201 | 1.0 | 1.0 | 0.00 | 0.00 | 0.00 | 59 | 1010.9 |
| 20260905185038 | 96 | 209 | 1.0 | 3.0 | 0.00 | 0.00 | 0.00 | 59 | 1011.0 |
| 20260905184533 | 95 | 186 | 0.0 | 2.0 | 0.00 | 0.00 | 0.00 | 64 | 1010.9 |
| 20260905184032 | 93 | 206 | 1.0 | 2.0 | 0.00 | 0.00 | 0.00 | 65 | 1011.0 |
| 20260905183531 | 92 | 203 | 1.0 | 3.0 | 0.00 | 0.00 | 0.00 | 65 | 1011.0 |
| 20260905183021 | 92 | 205 | 1.0 | 2.0 | 0.00 | 0.00 | 0.00 | 65 | 1010.8 |
| 20260905182521 | 95 | 204 | 1.0 | 5.0 | 0.00 | 0.00 | 0.00 | 65 | 1011.3 |
| 20260905182015 | 93 | 188 | 0.0 | 2.0 | 0.00 | 0.00 | 0.00 | 65 | 1011.2 |
| 20260905181510 | 94 | 314 | 3.0 | 5.0 | 0.00 | 0.00 | 0.00 | 63 | 1011.5 |
| 20260905181009 | 95 | 248 | 2.0 | 5.0 | 0.00 | 0.00 | 0.00 | 63 | 1011.4 |
| 20260905180504 | 95 | 142 | 0.0 | 2.0 | 0.00 | 0.00 | 0.00 | 67 | 1011.5 |
| 20260905175959 | 93 | 213 | 1.0 | 3.0 | 0.00 | 0.00 | 0.00 | 65 | 1011.7 |
| 20260905175458 | 94 | 70 | 1.0 | 2.0 | 0.00 | 0.00 | 0.00 | 66 | 1011.8 |
| 20260905174955 | 93 | 208 | 0.0 | 0.0 | 0.00 | 0.00 | 0.00 | 66 | 1011.9 |
| 20260905174449 | 93 | 203 | 2.0 | 3.0 | 0.00 | 0.00 | 0.00 | 67 | 1012.1 |
| 20260905173945 | 94 | 328 | 1.0 | 3.0 | 0.00 | 0.00 | 0.00 | 66 | 1012.1 |
| 20260905173441 | 94 | 145 | 0.0 | 1.0 | 0.00 | 0.00 | 0.00 | 66 | 1012.1 |
| 20260905172936 | 94 | 176 | 0.0 | 1.0 | 0.00 | 0.00 | 0.00 | 67 | 1012.1 |
| 20260905172434 | 93 | 129 | 1.0 | 1.0 | 0.00 | 0.00 | 0.00 | 68 | 1012.1 |
| 20260905171930 | 92 | 190 | 0.0 | 0.0 | 0.00 | 0.00 | 0.00 | 70 | 1012.3 |
| 20260905171427 | 91 | 199 | 0.0 | 1.0 | 0.00 | 0.00 | 0.00 | 68 | 1012.1 |
| 20260905170923 | 90 | 234 | 3.0 | 3.0 | 0.00 | 0.00 | 0.00 | 71 | 1012.1 |
| 20260905170419 | 90 | 233 | 5.0 | 6.0 | 0.00 | 0.00 | 0.00 | 71 | 1012.2 |
| 20260905165918 | 92 | 259 | 2.0 | 6.0 | 0.00 | 0.00 | 0.00 | 69 | 1012.4 |
| 20260905165413 | 92 | 204 | 0.0 | 2.0 | 0.00 | 0.00 | 0.00 | 67 | 1012.6 |
| 20260905164909 | 92 | 231 | 0.0 | 1.0 | 0.00 | 0.00 | 0.00 | 70 | 1012.6 |
| 20260905164403 | 92 | 195 | 0.0 | 2.0 | 0.00 | 0.00 | 0.00 | 70 | 1012.7 |
| 20260905163858 | 91 | 329 | 3.0 | 5.0 | 0.00 | 0.00 | 0.00 | 73 | 1012.7 |
| 20260905163355 | 92 | 354 | 5.0 | 6.0 | 0.00 | 0.00 | 0.00 | 71 | 1012.4 |
| 20260905162850 | 92 | 193 | 0.0 | 2.0 | 0.00 | 0.00 | 0.00 | 73 | 1012.6 |
| 20260905162350 | 91 | 194 | 1.0 | 2.0 | 0.00 | 0.00 | 0.00 | 71 | 1012.8 |
| 20260905161845 | 93 | 173 | 1.0 | 3.0 | 0.00 | 0.00 | 0.00 | 70 | 1012.8 |
| 20260905161344 | 91 | 197 | 0.0 | 1.0 | 0.00 | 0.00 | 0.00 | 72 | 1012.3 |
| 20260905160843 | 91 | 202 | 0.0 | 0.0 | 0.00 | 0.00 | 0.00 | 75 | 1012.5 |